WXM80 ListenWXM80 Stop

You find our weather info also at:

UK Metoffice

WeatherCloud

Weather Underground

Northeastern Weather Network

AWEKAS

Citizen Weather Observer Program (CWOP)

HAMweather, WeatherForYou, PWS Weather


Weather Underground History page Text

Daily Summary for December 17, 2016 Units:  English    Metric   Both
« Previous Day
Next Day »
Daily Weekly Monthly Yearly Custom
  High: Low: Average:
Temperature: 38.1 °F 26.0 °F 32.5 °F
Dew Point: 37.1 °F 11.9 °F 29.2 °F
Humidity: 97 % 52 % 89 %
Wind Speed: 4.9 mph 0.0 mph 0.9 mph
Wind Gust: 10.4 mph - -
Wind:- - SSW
Pressure: 30.35 in 29.85 in -
Precipitation: 0.69 in    
Historical Graphs
 
 
Tabular Data for December 17, 2016
Time Temperature Dew Point Pressure Wind Wind Speed Wind Gust Humidity Rainfall Rate (Hourly)
00:02 26.8 °F 12.4 °F 30.34 in SW 2.4 mph 9.2 mph 54 % 0.00 in
00:07 26.8 °F 12.4 °F 30.34 in WSW 1.6 mph 9.2 mph 54 % 0.00 in
00:12 26.9 °F 12.0 °F 30.34 in SW 2.2 mph 9.2 mph 53 % 0.00 in
00:17 26.9 °F 12.5 °F 30.34 in SW 1.6 mph 9.2 mph 54 % 0.00 in
00:22 27.0 °F 12.1 °F 30.34 in SW 3.3 mph 9.2 mph 53 % 0.00 in
00:27 27.0 °F 12.5 °F 30.35 in SW 0.3 mph 9.2 mph 54 % 0.00 in
00:32 27.0 °F 12.1 °F 30.34 in SW 0.9 mph 9.2 mph 53 % 0.00 in
00:37 27.1 °F 12.2 °F 30.34 in SW 1.7 mph 9.2 mph 53 % 0.00 in
00:42 27.1 °F 12.2 °F 30.35 in SW 4.9 mph 9.2 mph 53 % 0.00 in
00:47 27.2 °F 11.9 °F 30.34 in SW 3.0 mph 9.2 mph 52 % 0.00 in
00:53 27.2 °F 11.9 °F 30.34 in WSW 2.8 mph 9.2 mph 52 % 0.00 in
00:58 27.2 °F 11.9 °F 30.34 in SW 1.2 mph 9.2 mph 52 % 0.00 in
01:03 27.2 °F 11.9 °F 30.33 in SW 0.2 mph 9.2 mph 52 % 0.00 in
01:08 27.3 °F 12.4 °F 30.33 in WSW 2.8 mph 9.2 mph 53 % 0.00 in
01:13 27.3 °F 12.4 °F 30.33 in WSW 1.1 mph 9.2 mph 53 % 0.00 in
01:18 27.3 °F 12.4 °F 30.33 in WSW 1.5 mph 9.2 mph 53 % 0.00 in
01:23 27.3 °F 12.8 °F 30.33 in WSW 0.8 mph 9.2 mph 54 % 0.00 in
01:28 27.3 °F 12.8 °F 30.33 in West 1.2 mph 9.2 mph 54 % 0.00 in
01:33 27.3 °F 12.8 °F 30.33 in West 0.5 mph 9.2 mph 54 % 0.00 in
01:38 27.4 °F 12.9 °F 30.32 in West 1.6 mph 9.2 mph 54 % 0.00 in
01:43 27.4 °F 13.3 °F 30.32 in Calm   9.2 mph 55 % 0.00 in
01:48 27.4 °F 13.3 °F 30.30 in West 1.2 mph 9.2 mph 55 % 0.00 in
01:59 27.4 °F 14.1 °F 30.30 in West 0.4 mph 9.2 mph 57 % 0.00 in
02:04 27.4 °F 14.1 °F 30.30 in Calm   9.2 mph 57 % 0.00 in
02:09 27.5 °F 14.6 °F 30.31 in West 1.0 mph 9.2 mph 58 % 0.00 in
02:14 27.4 °F 14.5 °F 30.30 in Calm   9.2 mph 58 % 0.00 in
02:19 27.4 °F 14.5 °F 30.30 in Calm   9.2 mph 58 % 0.00 in
02:24 27.4 °F 14.5 °F 30.30 in Calm   9.2 mph 58 % 0.00 in
02:34 27.4 °F 14.9 °F 30.29 in Calm   9.2 mph 59 % 0.00 in
02:39 27.5 °F 15.0 °F 30.29 in Calm   9.2 mph 59 % 0.00 in
02:44 27.5 °F 15.0 °F 30.28 in Calm   9.2 mph 59 % 0.00 in
02:49 27.5 °F 15.4 °F 30.28 in Calm   9.2 mph 60 % 0.00 in
02:54 27.5 °F 16.2 °F 30.28 in Calm   9.2 mph 62 % 0.00 in
02:59 27.6 °F 16.6 °F 30.28 in Calm   9.2 mph 63 % 0.00 in
03:04 27.6 °F 17.4 °F 30.27 in Calm   9.2 mph 65 % 0.00 in
03:09 27.6 °F 18.1 °F 30.27 in West 0.2 mph 9.2 mph 67 % 0.00 in
03:14 27.5 °F 18.3 °F 30.27 in West 0.2 mph 9.2 mph 68 % 0.00 in
03:24 27.4 °F 18.9 °F 30.27 in Calm   9.2 mph 70 % 0.00 in
03:29 27.3 °F 19.1 °F 30.27 in SW 1.0 mph 3.0 mph 71 % 0.00 in
03:34 27.2 °F 19.4 °F 30.27 in Calm   1.0 mph 72 % 0.00 in
03:39 27.2 °F 20.0 °F 30.27 in SW 0.1 mph 9.2 mph 74 % 0.00 in
03:44 27.1 °F 20.5 °F 30.27 in Calm   1.0 mph 76 % 0.00 in
03:49 27.0 °F 21.1 °F 30.27 in Calm     78 % 0.00 in
03:54 26.9 °F 21.3 °F 30.27 in Calm     79 % 0.00 in
03:59 26.8 °F 21.5 °F 30.27 in Calm   9.2 mph 80 % 0.00 in
04:04 26.7 °F 21.6 °F 30.27 in Calm     81 % 0.00 in
04:09 26.5 °F 21.8 °F 30.26 in Calm   1.0 mph 82 % 0.00 in
04:14 26.5 °F 22.0 °F 30.26 in SW 1.0 mph 2.0 mph 83 % 0.00 in
04:24 26.3 °F 22.1 °F 30.25 in Calm   2.0 mph 84 % 0.00 in
04:29 26.3 °F 22.4 °F 30.25 in Calm   2.0 mph 85 % 0.01 in
04:34 26.2 °F 22.3 °F 30.24 in Calm   9.2 mph 85 % 0.03 in
04:39 26.2 °F 22.6 °F 30.23 in Calm   1.0 mph 86 % 0.00 in
04:44 26.2 °F 22.6 °F 30.22 in Calm   9.2 mph 86 % 0.04 in
04:49 26.1 °F 22.5 °F 30.22 in Calm   1.0 mph 86 % 0.00 in
04:54 26.1 °F 22.5 °F 30.22 in Calm   9.2 mph 86 % 0.04 in
05:00 26.1 °F 22.8 °F 30.21 in Calm   9.2 mph 87 % 0.05 in
05:05 26.1 °F 22.8 °F 30.21 in Calm   9.2 mph 87 % 0.04 in
05:10 26.1 °F 22.8 °F 30.21 in Calm   9.2 mph 87 % 0.04 in
05:15 26.1 °F 22.8 °F 30.20 in Calm   9.2 mph 87 % 0.05 in
05:20 26.2 °F 23.1 °F 30.18 in Calm   9.2 mph 88 % 0.04 in
05:25 26.2 °F 23.1 °F 30.17 in SW 0.2 mph 9.2 mph 88 % 0.05 in
05:30 26.2 °F 23.1 °F 30.17 in Calm   9.2 mph 88 % 0.04 in
05:35 26.1 °F 23.3 °F 30.17 in Calm   9.2 mph 89 % 0.05 in
05:40 26.1 °F 23.3 °F 30.17 in Calm   9.2 mph 89 % 0.06 in
05:45 26.1 °F 23.3 °F 30.16 in Calm   9.2 mph 89 % 0.05 in
05:50 26.1 °F 23.3 °F 30.16 in SW 0.7 mph 9.2 mph 89 % 0.06 in
05:55 26.0 °F 23.2 °F 30.16 in SW 0.1 mph 9.2 mph 89 % 0.06 in
06:00 26.0 °F 23.5 °F 30.16 in Calm   9.2 mph 90 % 0.06 in
06:05 26.0 °F 23.5 °F 30.16 in Calm   9.2 mph 90 % 0.06 in
06:11 26.0 °F 23.5 °F 30.15 in Calm   9.2 mph 90 % 0.07 in
06:16 26.0 °F 23.5 °F 30.15 in Calm   9.2 mph 90 % 0.06 in
06:21 26.0 °F 23.5 °F 30.14 in Calm   9.2 mph 90 % 0.06 in
06:26 26.0 °F 23.5 °F 30.13 in SW 0.3 mph 9.2 mph 90 % 0.06 in
06:31 26.0 °F 23.7 °F 30.13 in Calm   9.2 mph 91 % 0.05 in
06:36 26.1 °F 23.8 °F 30.13 in Calm   9.2 mph 91 % 0.06 in
06:41 26.1 °F 23.8 °F 30.12 in Calm   9.2 mph 91 % 0.05 in
06:46 26.1 °F 23.8 °F 30.12 in Calm   9.2 mph 91 % 0.06 in
06:51 26.2 °F 24.2 °F 30.12 in Calm   9.2 mph 92 % 0.05 in
06:56 26.3 °F 24.3 °F 30.11 in Calm   9.2 mph 92 % 0.06 in
07:01 26.4 °F 24.4 °F 30.10 in SW 0.4 mph 9.2 mph 92 % 0.05 in
07:06 26.7 °F 24.9 °F 30.09 in Calm   9.2 mph 93 % 0.06 in
07:11 26.9 °F 25.1 °F 30.09 in SW 0.2 mph 9.2 mph 93 % 0.05 in
07:16 27.2 °F 25.4 °F 30.09 in SW 0.4 mph 9.2 mph 93 % 0.06 in
07:21 27.4 °F 25.6 °F 30.08 in SSW 0.4 mph 9.2 mph 93 % 0.05 in
07:26 27.7 °F 26.2 °F 30.08 in East 0.6 mph 9.2 mph 94 % 0.06 in
07:31 28.0 °F 26.5 °F 30.08 in Calm   9.2 mph 94 % 0.07 in
07:36 28.2 °F 26.7 °F 30.07 in East 0.8 mph 9.2 mph 94 % 0.06 in
07:42 28.3 °F 26.8 °F 30.07 in East 0.1 mph 9.2 mph 94 % 0.07 in
07:47 28.5 °F 27.0 °F 30.06 in East 0.8 mph 9.2 mph 94 % 0.06 in
07:52 28.6 °F 27.1 °F 30.06 in East 0.4 mph 9.2 mph 94 % 0.06 in
07:57 28.6 °F 27.1 °F 30.05 in East 1.5 mph 9.2 mph 94 % 0.06 in
08:02 28.7 °F 27.2 °F 30.05 in East 0.4 mph 9.2 mph 94 % 0.07 in
08:07 28.8 °F 27.3 °F 30.04 in East 1.5 mph 9.2 mph 94 % 0.06 in
08:12 28.9 °F 27.4 °F 30.04 in East 1.1 mph 9.2 mph 94 % 0.07 in
08:17 28.9 °F 27.4 °F 30.04 in East 0.3 mph 9.2 mph 94 % 0.06 in
08:22 29.0 °F 27.5 °F 30.03 in East 0.1 mph 9.2 mph 94 % 0.06 in
08:27 29.0 °F 27.7 °F 30.03 in Calm   9.2 mph 95 % 0.07 in
08:32 29.1 °F 27.8 °F 30.03 in Calm   9.2 mph 95 % 0.06 in
08:37 29.1 °F 27.8 °F 30.02 in East 0.1 mph 9.2 mph 95 % 0.07 in
08:42 29.1 °F 27.8 °F 30.02 in East 0.7 mph 9.2 mph 95 % 0.07 in
08:47 29.1 °F 27.8 °F 30.01 in East 0.4 mph 9.2 mph 95 % 0.08 in
08:52 29.1 °F 27.8 °F 30.01 in East 1.1 mph 9.2 mph 95 % 0.09 in
08:57 29.2 °F 27.9 °F 30.01 in East 0.2 mph 9.2 mph 95 % 0.08 in
09:02 29.3 °F 28.0 °F 30.01 in Calm   9.2 mph 95 % 0.08 in
09:08 29.5 °F 28.2 °F 30.01 in East 0.6 mph 9.2 mph 95 % 0.09 in
09:13 29.7 °F 28.4 °F 30.01 in Calm   9.2 mph 95 % 0.10 in
09:18 30.1 °F 28.8 °F 29.99 in East 1.4 mph 9.2 mph 95 % 0.13 in
09:23 30.5 °F 29.2 °F 29.98 in East 1.6 mph 9.2 mph 95 % 0.14 in
09:28 31.1 °F 30.1 °F 29.97 in East 2.3 mph 9.2 mph 96 % 0.15 in
09:33 31.5 °F 30.5 °F 29.97 in East 0.8 mph 9.2 mph 96 % 0.15 in
09:38 31.7 °F 30.7 °F 29.98 in East 0.6 mph 9.2 mph 96 % 0.16 in
09:43 31.9 °F 30.9 °F 29.99 in North 1.2 mph 9.2 mph 96 % 0.16 in
09:48 32.1 °F 31.1 °F 29.98 in North 0.3 mph 9.2 mph 96 % 0.17 in
09:53 32.2 °F 31.2 °F 29.98 in Calm   9.2 mph 96 % 0.18 in
09:58 32.4 °F 31.4 °F 29.98 in Calm   9.2 mph 96 % 0.19 in
10:03 32.5 °F 31.5 °F 29.98 in Calm   9.2 mph 96 % 0.21 in
10:08 32.6 °F 31.6 °F 29.98 in WNW 0.5 mph 9.2 mph 96 % 0.21 in
10:13 32.7 °F 31.7 °F 29.98 in Calm   9.2 mph 96 % 0.21 in
10:19 32.9 °F 31.9 °F 29.97 in WNW 0.3 mph 9.2 mph 96 % 0.20 in
10:24 33.0 °F 32.0 °F 29.97 in Calm   9.2 mph 96 % 0.20 in
10:29 33.1 °F 32.1 °F 29.97 in NNW 1.6 mph 9.2 mph 96 % 0.19 in
10:34 33.2 °F 32.2 °F 29.96 in North 0.5 mph 9.2 mph 96 % 0.19 in
10:39 33.5 °F 32.5 °F 29.96 in NNE 0.8 mph 9.2 mph 96 % 0.20 in
10:44 33.7 °F 32.7 °F 29.95 in NNE 0.2 mph 9.2 mph 96 % 0.19 in
10:47 33.8 °F 32.8 °F 29.95 in NNE 0.4 mph 9.2 mph 96 % 0.19 in
10:52 34.1 °F 33.1 °F 29.95 in NNE 3.6 mph 9.2 mph 96 % 0.19 in
10:57 34.3 °F 33.3 °F 29.94 in NNE 0.8 mph 9.2 mph 96 % 0.16 in
11:02 34.4 °F 33.4 °F 29.93 in NNE 0.4 mph 9.2 mph 96 % 0.16 in
11:07 34.5 °F 33.5 °F 29.92 in NE 0.3 mph 9.2 mph 96 % 0.14 in
11:12 34.6 °F 33.6 °F 29.92 in NE 0.5 mph 9.2 mph 96 % 0.13 in
11:17 34.7 °F 33.7 °F 29.91 in ENE 0.7 mph 9.2 mph 96 % 0.11 in
11:22 34.8 °F 33.8 °F 29.91 in ENE 0.6 mph 9.2 mph 96 % 0.11 in
11:27 34.9 °F 33.9 °F 29.91 in Calm   9.2 mph 96 % 0.10 in
11:32 35.0 °F 34.0 °F 29.90 in Calm   9.2 mph 96 % 0.08 in
11:37 35.0 °F 34.0 °F 29.90 in Calm   9.2 mph 96 % 0.07 in
11:42 35.0 °F 34.0 °F 29.89 in Calm   9.2 mph 96 % 0.06 in
11:47 35.1 °F 34.1 °F 29.89 in ENE 0.4 mph 9.2 mph 96 % 0.05 in
11:52 35.1 °F 34.1 °F 29.88 in East 0.5 mph 9.2 mph 96 % 0.03 in
11:58 35.2 °F 34.2 °F 29.89 in East 2.0 mph 9.2 mph 96 % 0.02 in
12:03 35.2 °F 34.2 °F 29.88 in Calm   9.2 mph 96 % 0.02 in
12:08 35.2 °F 34.2 °F 29.88 in NNW 1.1 mph 9.2 mph 96 % 0.02 in
12:13 35.2 °F 34.2 °F 29.88 in WNW 1.5 mph 9.2 mph 96 % 0.01 in
12:18 35.3 °F 34.3 °F 29.86 in Calm   9.2 mph 96 % 0.01 in
12:28 35.6 °F 34.8 °F 29.87 in WNW 0.1 mph 9.2 mph 97 % 0.00 in
12:33 35.7 °F 34.7 °F 29.86 in WNW 2.2 mph 9.2 mph 96 % 0.00 in
12:38 35.7 °F 34.7 °F 29.86 in WNW 0.6 mph 9.2 mph 96 % 0.00 in
12:43 35.8 °F 34.8 °F 29.87 in WNW 0.7 mph 9.2 mph 96 % 0.00 in
12:48 35.7 °F 34.7 °F 29.87 in SSW 1.3 mph 9.2 mph 96 % 0.00 in
12:53 35.7 °F 34.7 °F 29.86 in SW 0.9 mph 9.2 mph 96 % 0.00 in
12:58 35.7 °F 34.7 °F 29.86 in SW 0.4 mph 9.2 mph 96 % 0.00 in
13:03 35.7 °F 34.7 °F 29.86 in WSW 2.1 mph 9.2 mph 96 % 0.00 in
13:08 35.5 °F 34.5 °F 29.86 in WSW 1.5 mph 9.2 mph 96 % 0.00 in
13:13 35.5 °F 34.5 °F 29.86 in WSW 0.8 mph 9.2 mph 96 % 0.00 in
13:18 35.4 °F 34.4 °F 29.86 in Calm   9.2 mph 96 % 0.00 in
13:23 35.5 °F 34.5 °F 29.86 in WSW 1.3 mph 9.2 mph 96 % 0.00 in
13:29 35.5 °F 34.5 °F 29.86 in SSW 1.3 mph 9.2 mph 96 % 0.00 in
13:34 35.5 °F 34.5 °F 29.86 in WSW 0.6 mph 9.2 mph 96 % 0.00 in
13:39 35.5 °F 34.5 °F 29.87 in WSW 2.9 mph 9.2 mph 96 % 0.00 in
13:44 35.5 °F 34.5 °F 29.87 in WSW 1.2 mph 9.2 mph 96 % 0.00 in
13:49 35.4 °F 34.4 °F 29.87 in WSW 0.4 mph 9.2 mph 96 % 0.00 in
13:54 35.4 °F 34.4 °F 29.87 in WSW 1.1 mph 9.2 mph 96 % 0.00 in
13:59 35.4 °F 34.4 °F 29.88 in SW 0.5 mph 9.2 mph 96 % 0.00 in
14:04 35.4 °F 34.4 °F 29.86 in SW 2.3 mph 9.2 mph 96 % 0.00 in
14:09 35.5 °F 34.5 °F 29.86 in Calm   9.2 mph 96 % 0.00 in
14:14 35.5 °F 34.5 °F 29.85 in SW 0.3 mph 9.2 mph 96 % 0.00 in
14:19 35.6 °F 34.6 °F 29.86 in SW 0.3 mph 9.2 mph 96 % 0.00 in
14:24 35.7 °F 34.7 °F 29.87 in SW 1.6 mph 9.2 mph 96 % 0.00 in
14:29 35.7 °F 34.7 °F 29.88 in SW 1.0 mph 4.0 mph 96 % 0.00 in
14:34 35.8 °F 34.8 °F 29.87 in Calm   3.0 mph 96 % 0.00 in
14:39 35.9 °F 34.9 °F 29.87 in SW 1.0 mph 3.0 mph 96 % 0.00 in
14:44 35.9 °F 34.9 °F 29.88 in SW 1.0 mph 3.0 mph 96 % 0.00 in
14:49 36.0 °F 35.0 °F 29.88 in Calm   1.0 mph 96 % 0.00 in
14:54 36.0 °F 35.0 °F 29.87 in Calm   2.0 mph 96 % 0.00 in
14:59 36.1 °F 35.1 °F 29.88 in SW 1.5 mph 9.2 mph 96 % 0.00 in
15:05 36.1 °F 35.1 °F 29.88 in SW 1.1 mph 9.2 mph 96 % 0.00 in
15:10 36.1 °F 35.1 °F 29.88 in West 0.9 mph 9.2 mph 96 % 0.00 in
15:15 36.2 °F 35.2 °F 29.87 in Calm   9.2 mph 96 % 0.00 in
15:20 36.2 °F 35.2 °F 29.88 in SW 0.4 mph 9.2 mph 96 % 0.00 in
15:25 36.2 °F 35.2 °F 29.88 in SW 1.8 mph 9.2 mph 96 % 0.00 in
15:30 36.2 °F 35.2 °F 29.88 in WSW 1.4 mph 9.2 mph 96 % 0.00 in
15:35 36.2 °F 35.2 °F 29.88 in WSW 0.2 mph 9.2 mph 96 % 0.00 in
15:40 36.2 °F 35.2 °F 29.88 in WSW 3.4 mph 9.2 mph 96 % 0.00 in
15:45 36.2 °F 35.2 °F 29.88 in WSW 2.7 mph 9.2 mph 96 % 0.00 in
15:50 36.3 °F 35.3 °F 29.88 in WSW 1.0 mph 9.2 mph 96 % 0.00 in
15:55 36.3 °F 35.3 °F 29.88 in Calm   9.2 mph 96 % 0.00 in
16:00 36.3 °F 35.3 °F 29.88 in SSW 2.5 mph 9.2 mph 96 % 0.00 in
16:05 36.3 °F 35.3 °F 29.88 in WSW 1.2 mph 9.2 mph 96 % 0.00 in
16:10 36.3 °F 35.3 °F 29.88 in SW 1.9 mph 9.2 mph 96 % 0.00 in
16:15 36.2 °F 35.2 °F 29.88 in SW 0.3 mph 9.2 mph 96 % 0.00 in
16:20 36.2 °F 35.2 °F 29.88 in SW 0.1 mph 9.2 mph 96 % 0.00 in
16:25 36.2 °F 35.2 °F 29.88 in Calm   9.2 mph 96 % 0.00 in
16:31 36.2 °F 35.2 °F 29.88 in Calm   9.2 mph 96 % 0.00 in
16:36 36.2 °F 35.2 °F 29.87 in SW 1.4 mph 9.2 mph 96 % 0.00 in
16:41 36.1 °F 35.1 °F 29.87 in Calm   9.2 mph 96 % 0.00 in
16:46 36.1 °F 35.1 °F 29.87 in WSW 2.2 mph 9.2 mph 96 % 0.00 in
16:51 36.1 °F 35.1 °F 29.88 in WSW 1.0 mph 9.2 mph 96 % 0.00 in
16:56 36.0 °F 35.0 °F 29.87 in WSW 0.5 mph 9.2 mph 96 % 0.00 in
17:01 36.0 °F 35.0 °F 29.88 in SSW 3.1 mph 9.2 mph 96 % 0.00 in
17:06 35.9 °F 34.9 °F 29.89 in South 2.1 mph 9.2 mph 96 % 0.00 in
17:11 35.9 °F 34.9 °F 29.89 in SSW 1.7 mph 9.2 mph 96 % 0.00 in
17:16 35.9 °F 34.9 °F 29.89 in South 1.7 mph 9.2 mph 96 % 0.00 in
17:21 35.9 °F 34.9 °F 29.89 in South 0.9 mph 9.2 mph 96 % 0.00 in
17:31 35.9 °F 34.9 °F 29.88 in SW 0.3 mph 9.2 mph 96 % 0.00 in
17:37 35.9 °F 34.9 °F 29.89 in South 1.7 mph 9.2 mph 96 % 0.00 in
17:42 35.9 °F 34.6 °F 29.89 in SSW 0.8 mph 9.2 mph 95 % 0.00 in
17:47 35.8 °F 34.5 °F 29.88 in SSW 2.1 mph 9.2 mph 95 % 0.00 in
17:52 35.8 °F 34.5 °F 29.89 in SW 1.7 mph 9.2 mph 95 % 0.00 in
17:57 35.8 °F 34.5 °F 29.90 in SW 1.2 mph 9.2 mph 95 % 0.00 in
18:02 35.9 °F 34.6 °F 29.89 in West 1.8 mph 9.2 mph 95 % 0.00 in
18:07 35.9 °F 34.6 °F 29.89 in SSW 2.9 mph 9.2 mph 95 % 0.00 in
18:12 35.9 °F 34.6 °F 29.90 in SW 2.2 mph 9.2 mph 95 % 0.00 in
18:17 35.9 °F 34.6 °F 29.91 in West 1.0 mph 9.2 mph 95 % 0.00 in
18:22 36.0 °F 34.7 °F 29.91 in West 0.4 mph 9.2 mph 95 % 0.00 in
18:27 36.0 °F 34.7 °F 29.90 in SSW 0.5 mph 9.2 mph 95 % 0.00 in
18:32 36.0 °F 34.7 °F 29.90 in SSW 0.1 mph 9.2 mph 95 % 0.00 in
18:37 36.0 °F 34.7 °F 29.90 in Calm   9.2 mph 95 % 0.00 in
18:42 36.1 °F 34.8 °F 29.90 in SW 0.6 mph 9.2 mph 95 % 0.00 in
18:47 36.1 °F 34.8 °F 29.90 in Calm   9.2 mph 95 % 0.00 in
18:52 36.1 °F 34.8 °F 29.91 in WSW 1.8 mph 9.2 mph 95 % 0.00 in
18:58 36.1 °F 34.8 °F 29.91 in WSW 0.3 mph 9.2 mph 95 % 0.00 in
19:03 36.1 °F 34.8 °F 29.91 in WSW 1.4 mph 9.2 mph 95 % 0.00 in
19:08 36.1 °F 34.8 °F 29.91 in SSW 3.9 mph 9.2 mph 95 % 0.00 in
19:13 36.2 °F 34.9 °F 29.91 in South 4.5 mph 9.2 mph 95 % 0.00 in
19:18 36.2 °F 34.9 °F 29.92 in WSW 2.0 mph 9.2 mph 95 % 0.00 in
19:23 36.3 °F 35.0 °F 29.92 in SW 3.3 mph 9.2 mph 95 % 0.00 in
19:28 36.4 °F 35.1 °F 29.92 in SW 2.9 mph 9.2 mph 95 % 0.00 in
19:33 36.4 °F 35.1 °F 29.92 in SW 2.2 mph 10.4 mph 95 % 0.00 in
19:38 36.5 °F 35.2 °F 29.92 in SW 2.7 mph 10.4 mph 95 % 0.00 in
19:48 36.5 °F 35.2 °F 29.90 in SW 2.0 mph 10.4 mph 95 % 0.00 in
19:53 36.6 °F 35.3 °F 29.90 in SSW 3.7 mph 10.4 mph 95 % 0.00 in
19:58 36.6 °F 35.3 °F 29.91 in West 2.0 mph 10.4 mph 95 % 0.00 in
20:03 36.6 °F 35.3 °F 29.90 in WSW 2.3 mph 10.4 mph 95 % 0.00 in
20:08 36.7 °F 35.4 °F 29.90 in SW 1.7 mph 10.4 mph 95 % 0.00 in
20:13 36.7 °F 35.4 °F 29.90 in WSW 2.2 mph 10.4 mph 95 % 0.00 in
20:18 36.7 °F 35.4 °F 29.91 in SW 3.4 mph 10.4 mph 95 % 0.00 in
20:23 36.8 °F 35.5 °F 29.91 in SSW 3.8 mph 10.4 mph 95 % 0.00 in
20:29 36.8 °F 35.5 °F 29.91 in WSW 1.7 mph 10.4 mph 95 % 0.00 in
20:34 36.8 °F 35.5 °F 29.91 in SW 2.3 mph 10.4 mph 95 % 0.00 in
20:39 36.8 °F 35.5 °F 29.92 in WSW 2.0 mph 10.4 mph 95 % 0.00 in
20:44 36.8 °F 35.5 °F 29.92 in SW 4.8 mph 10.4 mph 95 % 0.00 in
20:49 36.8 °F 35.5 °F 29.92 in WSW 1.2 mph 10.4 mph 95 % 0.00 in
20:54 36.8 °F 35.5 °F 29.91 in SSW 1.9 mph 10.4 mph 95 % 0.00 in
20:59 36.8 °F 35.5 °F 29.91 in SSW 1.6 mph 10.4 mph 95 % 0.00 in
21:04 36.8 °F 35.5 °F 29.90 in SSW 1.6 mph 10.4 mph 95 % 0.00 in
21:09 36.8 °F 35.5 °F 29.89 in SSW 1.0 mph 10.4 mph 95 % 0.00 in
21:14 36.8 °F 35.5 °F 29.90 in WSW 1.1 mph 10.4 mph 95 % 0.00 in
21:19 36.8 °F 35.5 °F 29.90 in SW 2.5 mph 10.4 mph 95 % 0.00 in
21:24 36.8 °F 35.5 °F 29.89 in SSW 1.5 mph 10.4 mph 95 % 0.00 in
21:29 36.8 °F 35.5 °F 29.89 in Calm   3.0 mph 95 % 0.00 in
21:34 36.8 °F 35.5 °F 29.88 in SSW 1.0 mph 5.0 mph 95 % 0.00 in
21:39 36.8 °F 35.5 °F 29.90 in WSW 0.9 mph 10.4 mph 95 % 0.00 in
21:44 36.8 °F 35.5 °F 29.89 in SW 3.0 mph 8.0 mph 95 % 0.00 in
21:49 36.8 °F 35.5 °F 29.89 in SW 2.0 mph 10.4 mph 95 % 0.00 in
21:54 36.8 °F 35.5 °F 29.89 in SW 2.0 mph 4.0 mph 95 % 0.00 in
21:59 36.8 °F 35.5 °F 29.89 in SSW 2.1 mph 10.4 mph 95 % 0.00 in
22:04 36.8 °F 35.5 °F 29.89 in SW 3.0 mph 7.0 mph 95 % 0.00 in
22:09 36.9 °F 35.6 °F 29.89 in SW 3.0 mph 7.0 mph 95 % 0.00 in
22:15 36.9 °F 35.6 °F 29.89 in SW 3.0 mph 6.0 mph 95 % 0.00 in
22:20 36.9 °F 35.6 °F 29.89 in SW 1.9 mph 10.4 mph 95 % 0.00 in
22:25 37.0 °F 35.7 °F 29.89 in SW 1.2 mph 10.4 mph 95 % 0.00 in
22:35 37.1 °F 35.8 °F 29.89 in SW 0.7 mph 10.4 mph 95 % 0.00 in
22:40 37.1 °F 35.8 °F 29.89 in SSW 0.1 mph 10.4 mph 95 % 0.00 in
22:45 37.2 °F 35.9 °F 29.89 in Calm   10.4 mph 95 % 0.00 in
22:50 37.2 °F 35.9 °F 29.88 in SSW 0.5 mph 10.4 mph 95 % 0.00 in
22:55 37.2 °F 35.9 °F 29.88 in SSW 0.3 mph 10.4 mph 95 % 0.00 in
23:00 37.2 °F 35.9 °F 29.88 in Calm   10.4 mph 95 % 0.00 in
23:05 37.3 °F 36.0 °F 29.88 in WSW 1.6 mph 10.4 mph 95 % 0.00 in
23:10 37.4 °F 36.4 °F 29.89 in West 1.0 mph 10.4 mph 96 % 0.00 in
23:15 37.5 °F 36.5 °F 29.88 in Calm   10.4 mph 96 % 0.00 in
23:20 37.6 °F 36.6 °F 29.88 in Calm   10.4 mph 96 % 0.00 in
23:25 37.7 °F 36.7 °F 29.88 in Calm   10.4 mph 96 % 0.00 in
23:31 37.8 °F 36.8 °F 29.88 in Calm   10.4 mph 96 % 0.00 in
23:36 37.9 °F 36.9 °F 29.88 in West 0.5 mph 10.4 mph 96 % 0.00 in
23:41 38.0 °F 37.0 °F 29.88 in Calm   10.4 mph 96 % 0.00 in
23:46 38.0 °F 37.0 °F 29.87 in Calm   10.4 mph 96 % 0.00 in
23:51 38.1 °F 37.1 °F 29.87 in West 0.6 mph 10.4 mph 96 % 0.00 in
23:56 38.1 °F 37.1 °F 29.87 in Calm   10.4 mph 96 % 0.00 in
Crab Meadow Weather
Compliments of Weather Underground - 2.75 mb

Script developed by  Jim McMurry - jmcmurry@mwt.net Adapted for the template by  Wim van der Kuil - Leuven-Template.eu

Lightning: Lightning is equivalent to the electric power of 100 million light bulbs in your face.